Temp
12 11 9 9 9 10 9 8 8 9 9 8 9 10 11 11 11 11 11 11 11 11 11 11 11 10 10 9 9 9 10 9
13 12 11 10 9 9 10 9 9 9 9 10 10 10 10 11 11 11 11 11 11 11 11 10 11 10 10 10 9 9 9 9
13 12 11 11 11 11 10 10 10 10 10 10 10 10 11 11 11 11 12 11 11 12 11 11 11 11 10 9 10 10 9 9
14 13 12 12 11 11 11 11 11 11 11 11 11 11 12 12 12 12 12 11 11 11 12 11 11 11 10 10 10 10 9 8
16 14 13 13 13 13 12 12 12 11 11 12 12 12 12 12 12 13 12 12 12 11 10 10 10 10 10 10 11 10 8 8
17 15 14 14 14 13 13 13 12 12 12 13 12 13 13 13 13 13 13 12 12 12 11 11 10 10 10 10 10 10 9 8
19 17 15 15 14 14 14 13 13 13 13 13 13 13 13 13 13 13 13 12 12 12 11 11 10 11 10 9 9 8 8 7
21 19 17 16 15 15 14 14 13 13 14 14 13 13 12 13 13 13 13 13 12 12 11 11 11 11 10 10 9 7 7 7
22 21 19 18 17 16 15 14 14 14 14 14 14 14 13 13 13 13 13 12 12 12 11 11 11 11 9 8 7 7 6 6
22 22 21 19 18 17 16 15 14 14 15 15 15 15 13 13 12 12 12 12 11 11 10 10 10 9 9 8 7 7 6 5
23 23 22 21 19 18 17 16 15 15 15 15 14 15 13 13 12 11 12 11 12 12 11 10 9 9 8 8 6 6 5 5
21 22 22 22 21 19 18 17 16 16 15 16 14 13 13 13 11 12 11 11 11 10 10 9 9 9 8 7 7 6 5 4
20 20 20 21 21 20 18 17 17 16 15 15 14 13 12 11 12 11 10 11 10 9 9 9 8 8 7 6 5 4 4 2
20 19 19 19 20 20 18 17 16 16 15 15 13 13 13 11 11 10 10 9 9 9 8 8 8 7 6 5 4 4 3 2
21 19 19 18 18 18 17 16 16 16 15 14 13 13 12 10 10 10 9 9 9 8 8 7 7 6 4 4 3 3 2 1
21 20 19 18 17 16 16 15 15 15 14 14 12 11 10 9 9 9 8 8 8 7 7 6 5 4 3 2 1 1 1 0
22 21 19 17 16 15 14 14 14 13 12 10 10 9 9 8 7 7 6 6 6 5 5 4 3 2 1 0 0 0 0 -0
21 20 19 17 15 14 12 11 11 10 11 10 7 7 7 7 6 5 5 5 4 4 3 2 0 0 0 0 0 -0 -0 -1
18 18 17 16 14 12 11 10 9 8 7 7 7 7 6 5 3 3 4 3 2 1 1 1 0 -0 -0 -1 -0 -0 -1 -2
Height
1496 1498 1500 1503 1506 1509 1513 1516 1521 1524 1530 1535 1541 1545 1547 1549 1551 1554 1557 1559 1561 1562 1564 1565 1565 1567 1569 1571 1573 1574 1575 1574
1495 1498 1501 1505 1508 1511 1515 1518 1522 1526 1532 1535 1539 1541 1544 1546 1550 1552 1555 1556 1558 1559 1562 1561 1562 1565 1566 1567 1569 1570 1570 1571
1492 1496 1501 1504 1506 1510 1514 1518 1521 1525 1529 1533 1536 1539 1541 1544 1545 1548 1550 1552 1553 1555 1556 1557 1559 1561 1563 1564 1564 1565 1566 1567
1488 1492 1496 1500 1503 1505 1510 1514 1518 1522 1526 1530 1534 1536 1538 1539 1541 1543 1545 1547 1548 1550 1552 1553 1554 1556 1558 1559 1559 1560 1561 1564
1482 1488 1491 1493 1498 1502 1507 1512 1515 1518 1523 1527 1530 1531 1533 1536 1538 1540 1541 1542 1543 1545 1547 1549 1549 1551 1552 1552 1554 1555 1558 1559
1474 1479 1484 1489 1495 1497 1502 1507 1511 1515 1519 1522 1525 1528 1530 1532 1534 1536 1536 1536 1538 1541 1541 1542 1543 1544 1546 1547 1548 1549 1551 1553
1466 1472 1480 1483 1488 1493 1497 1502 1505 1511 1514 1517 1521 1524 1527 1530 1531 1531 1532 1532 1533 1533 1535 1537 1537 1537 1540 1541 1543 1545 1545 1546
1461 1465 1471 1476 1480 1484 1490 1494 1499 1504 1510 1514 1517 1522 1521 1522 1525 1526 1527 1527 1526 1526 1529 1531 1531 1532 1534 1535 1536 1539 1539 1538
1454 1458 1462 1467 1473 1478 1482 1486 1492 1499 1503 1506 1507 1504 1512 1517 1517 1521 1519 1520 1520 1523 1523 1524 1525 1527 1529 1529 1531 1533 1533 1533
1446 1450 1455 1459 1463 1469 1475 1481 1486 1491 1491 1492 1496 1498 1504 1504 1510 1513 1515 1517 1518 1517 1516 1518 1520 1522 1523 1524 1525 1525 1526 1527
1442 1445 1447 1452 1457 1461 1467 1473 1480 1482 1484 1487 1488 1493 1496 1501 1503 1505 1508 1511 1511 1513 1513 1514 1516 1517 1517 1519 1520 1521 1521 1521
1440 1441 1442 1446 1450 1456 1461 1465 1471 1476 1477 1478 1480 1485 1491 1495 1496 1500 1502 1504 1505 1508 1508 1508 1510 1510 1511 1512 1513 1514 1515 1516
1439 1439 1440 1443 1447 1450 1455 1460 1464 1466 1471 1469 1478 1482 1487 1490 1493 1495 1496 1499 1500 1501 1502 1503 1504 1504 1506 1507 1509 1508 1510 1513
1439 1440 1441 1443 1445 1449 1454 1457 1461 1463 1465 1470 1475 1478 1481 1483 1487 1489 1491 1493 1495 1496 1497 1498 1499 1500 1501 1502 1504 1506 1508 1509
1434 1439 1442 1443 1445 1447 1450 1454 1459 1461 1463 1466 1470 1475 1478 1479 1481 1484 1486 1488 1490 1491 1492 1494 1494 1496 1497 1499 1501 1502 1505 1507
1430 1434 1439 1442 1445 1448 1452 1453 1455 1457 1458 1462 1466 1470 1473 1475 1478 1480 1481 1483 1485 1487 1488 1490 1491 1493 1495 1496 1498 1502 1504 1505
1427 1430 1434 1439 1444 1447 1447 1450 1453 1455 1458 1460 1465 1468 1469 1472 1474 1476 1478 1480 1482 1484 1486 1488 1489 1491 1493 1496 1498 1500 1500 1499
1426 1429 1431 1434 1440 1443 1446 1448 1452 1453 1455 1459 1462 1464 1467 1469 1472 1474 1477 1478 1480 1482 1484 1486 1488 1491 1493 1495 1495 1495 1495 1494
1423 1428 1429 1431 1435 1441 1444 1448 1450 1452 1454 1457 1460 1464 1466 1469 1472 1473 1475 1478 1480 1482 1484 1486 1487 1488 1489 1490 1490 1491 1491 1491
Wind_Speed
19 19 21 24 23 24 24 30 28 30 36 34 33 35 29 22 21 20 20 21 24 21 21 18 19 19 15 16 16 13 13 13
24 24 23 28 27 26 25 29 35 31 29 34 24 23 23 24 25 24 26 24 23 22 20 19 21 18 16 18 18 18 18 17
27 29 29 27 24 24 29 30 33 30 29 27 27 28 29 27 25 24 27 25 23 23 20 20 21 20 21 23 19 20 19 20
31 32 30 33 31 27 25 26 26 26 25 20 19 22 19 22 25 28 19 23 22 22 20 23 25 21 25 23 21 19 20 21
32 34 36 34 38 34 30 29 28 27 27 29 28 26 28 28 26 27 26 30 28 26 24 27 27 26 26 24 23 21 22 22
37 38 38 39 38 38 33 34 34 32 28 27 29 28 25 24 25 27 26 30 30 28 29 27 29 32 29 28 28 26 24 25
37 37 37 38 39 39 38 37 37 34 31 27 28 29 28 26 26 28 30 31 29 25 29 30 34 33 31 28 28 28 26 27
33 38 40 40 40 40 40 40 39 36 35 31 29 28 25 28 28 29 32 34 31 30 27 29 33 34 31 26 28 31 32 32
33 34 41 42 42 42 42 42 40 36 35 33 30 33 31 29 31 29 28 30 34 31 31 27 28 27 26 26 26 29 34 32
36 36 37 42 44 42 43 40 38 37 40 39 33 25 34 32 34 27 30 26 29 31 33 30 23 24 27 27 30 33 35 33
16 26 36 34 41 43 42 39 36 37 40 43 45 30 34 30 25 27 30 27 32 31 32 30 27 25 27 28 31 33 35 34
8 12 15 36 34 38 38 38 34 33 38 36 41 39 27 30 28 31 28 31 31 22 21 24 25 24 26 31 32 33 34 29
6 8 10 12 27 31 37 36 33 31 30 31 27 25 28 29 29 26 25 23 22 21 16 17 20 24 27 29 30 29 25 24
9 8 9 11 17 16 23 26 22 23 24 19 23 25 26 26 22 19 19 20 21 20 18 19 20 23 24 24 23 22 21 18
14 12 11 12 13 16 17 16 17 20 22 20 22 23 21 21 19 19 19 20 19 20 20 20 18 16 15 17 18 15 14 17
14 17 16 16 17 17 18 22 25 25 26 27 25 22 19 17 16 17 17 17 16 14 13 11 8 6 6 6 6 9 14 16
15 17 22 20 19 21 26 25 24 22 20 16 13 12 13 14 13 12 12 11 10 8 7 6 5 3 2 4 8 12 14 18
10 14 19 25 23 23 20 19 18 19 19 14 14 15 14 11 11 8 9 8 8 6 5 4 2 1 4 8 12 14 14 11
14 14 19 20 22 21 23 22 23 19 19 19 18 15 14 14 14 13 12 10 8 7 4 3 5 4 1 3 6 8 10 12
Wind_Direction
159 157 162 158 158 148 147 153 155 162 167 168 177 190 205 204 210 215 231 224 218 219 207 219 227 225 216 214 227 210 213 240
162 169 171 163 173 169 161 166 168 166 178 184 200 199 209 202 212 216 226 227 225 222 219 221 232 221 225 232 221 215 229 217
169 173 177 180 181 181 178 179 180 186 194 199 202 201 208 210 206 218 228 230 229 234 222 226 240 219 219 229 240 234 239 234
174 179 185 185 194 191 191 192 194 198 196 199 207 214 218 216 215 226 221 225 222 233 227 217 238 229 225 239 245 249 241 225
180 186 190 190 193 200 197 199 201 205 203 203 210 208 214 217 217 224 228 226 236 233 232 222 229 240 235 244 252 251 226 226
185 191 196 197 195 202 200 202 206 210 213 209 207 215 217 220 221 220 227 229 246 235 227 229 230 239 243 241 245 247 242 230
188 194 196 199 201 201 207 204 209 207 218 217 218 220 228 225 226 223 225 232 245 242 236 232 242 248 245 244 247 245 246 236
191 189 194 200 204 206 206 210 209 211 213 219 224 229 230 231 227 231 229 233 240 247 247 238 245 250 252 253 247 242 238 233
200 198 197 200 206 208 212 211 211 211 213 213 220 238 233 236 232 228 235 231 242 249 254 255 251 254 251 246 242 239 240 240
200 205 208 201 201 209 211 210 211 209 212 214 216 224 235 237 239 239 240 243 246 249 249 250 254 252 250 248 247 242 244 244
229 218 211 207 204 205 210 216 211 215 214 221 224 224 225 235 234 242 237 239 245 253 248 248 257 257 252 254 250 248 246 246
232 227 227 212 205 197 202 208 211 219 222 227 230 225 227 235 236 239 238 241 254 263 269 257 259 257 252 250 254 251 251 251
195 204 217 199 203 197 203 206 219 223 233 237 221 224 226 222 237 233 237 241 250 258 265 261 259 258 255 256 253 251 254 254
178 188 191 199 203 189 188 194 206 224 232 220 210 212 224 223 225 230 236 242 251 256 258 258 258 262 259 259 259 261 257 251
174 180 186 184 188 193 194 195 199 210 210 207 200 212 222 215 222 230 235 244 246 246 248 249 254 257 253 251 257 256 250 260
193 178 176 176 174 174 171 181 192 191 194 195 203 202 210 222 228 234 238 236 234 233 232 233 232 234 229 220 221 244 269 278
214 186 174 174 175 172 185 188 197 200 189 182 186 199 195 203 208 200 195 192 187 180 173 172 177 186 174 217 255 273 279 286
216 206 186 167 172 189 180 182 186 197 198 185 176 181 182 176 166 169 154 158 154 155 141 122 128 234 269 272 277 280 281 293
184 193 185 190 184 159 159 162 169 172 162 165 168 166 157 151 153 166 158 154 153 151 150 183 248 256 289 290 298 299 293 293